Weather History for Somerville, NJ

Change the Weather History Date:

Tuesday, January 29, 2013

  Actual Average Record
Temperature  
Mean Temperature 42 °F -  
Max Temperature 52 °F 36 °F 69 °F (2002)
Min Temperature 33 °F 17 °F -9 °F (1961)
Degree Days  
Heating Degree Days 22    
Moisture  
Dew Point 37 °F    
Average Humidity 91    
Maximum Humidity 100    
Minimum Humidity 66    
Precipitation  
Precipitation 0.00 in - - ()
Sea Level Pressure  
Sea Level Pressure 30.06 in    
Wind  
Wind Speed 1 mph (SE)    
Max Wind Speed 7 mph    
Max Gust Speed -    
Visibility 4 miles    
Events Rain    
Averages and records for this station are not official NWS values.
T = Trace of Precipitation, MM = Missing Value Source: NWS Daily Summary

Daily Weather History Graph

Daily Weather History Graph

Search for Another Location

Airport:

Trip Planner

Search our weather history database for the weather conditions in past years. The results will help you decide how hot, cold, wet, or windy it might be!

Date:

Astronomy

Jan. 29, 2013 Rise Set
Actual Time 7:11 AM EST 5:13 PM EST
Civil Twilight 6:41 AM EST 5:42 PM EST
Nautical Twilight 6:09 AM EST 6:15 PM EST
Astronomical Twilight 5:36 AM EST 6:47 PM EST
Moon 8:07 PM EST (1/29) 8:05 AM EST (1/29)
Length of Visible Light 11h 00m
Length of Day
10h 02m
Waning Gibbous, 94% of the Moon is Illuminated
Jan 29
Waning Gibbous
Feb 3
Last Quarter
Feb 10
New
Feb 17
First Quarter
Feb 25
Full

Hourly Weather History & Observations

Time (EST) Temp. Windchill Dew Point Humidity Pressure Visibility Wind Dir Wind Speed Gust Speed Precip Events Conditions
12:02 AM 33.8 °F - 33.8 °F 100% 30.02 in 3.0 mi Calm Calm - N/A   Overcast
12:16 AM 33.8 °F - 33.8 °F 100% 30.01 in 2.5 mi Calm Calm - N/A   Overcast
12:32 AM 33.8 °F 30.8 °F 33.8 °F 100% 30.00 in 1.2 mi South 3.5 mph - N/A   Overcast
12:46 AM 33.8 °F - 33.8 °F 100% 30.00 in 2.5 mi Calm Calm - N/A   Overcast
12:53 AM 34.0 °F - 33.1 °F 96% 30.01 in 2.0 mi Calm Calm - N/A   Overcast
1:00 AM 33.8 °F - 33.8 °F 100% 30.00 in 1.8 mi Calm Calm - N/A   Overcast
1:53 AM 34.0 °F - 33.1 °F 96% 30.03 in 1.5 mi Calm Calm - N/A   Overcast
2:35 AM 35.6 °F - 33.8 °F 93% 30.01 in 2.5 mi Calm Calm - N/A   Overcast
2:53 AM 35.1 °F - 34.0 °F 96% 30.02 in 2.5 mi Calm Calm - N/A   Overcast
3:03 AM 35.6 °F - 33.8 °F 93% 30.01 in 3.0 mi Calm Calm - N/A   Overcast
3:13 AM 35.6 °F - 35.6 °F 100% 30.01 in 2.0 mi Calm Calm - N/A   Overcast
3:31 AM 35.6 °F - 35.6 °F 100% 30.01 in 1.8 mi Calm Calm - N/A   Overcast
3:53 AM 35.1 °F - 35.1 °F 100% 30.02 in 1.2 mi Calm Calm - N/A   Overcast
4:50 AM 35.6 °F - 33.8 °F 93% 30.03 in 2.0 mi Calm Calm - N/A   Overcast
4:53 AM 35.1 °F - 34.0 °F 96% 30.04 in 2.0 mi Calm Calm - N/A   Overcast
5:11 AM 35.6 °F - 35.6 °F 100% 30.04 in 1.8 mi Calm Calm - N/A   Overcast
5:37 AM 35.6 °F 32.8 °F 33.8 °F 93% 30.05 in 2.5 mi NNE 3.5 mph - N/A   Overcast
5:50 AM 33.8 °F - 33.8 °F 100% 30.06 in 1.8 mi Calm Calm - N/A   Overcast
5:53 AM 35.1 °F - 34.0 °F 96% 30.07 in 1.8 mi Calm Calm - N/A   Overcast
6:53 AM 35.1 °F - 34.0 °F 96% 30.09 in 1.5 mi Calm Calm - N/A   Overcast
7:35 AM 35.6 °F - 33.8 °F 93% 30.10 in 0.8 mi Calm Calm - N/A   Overcast
7:46 AM 35.6 °F - 33.8 °F 93% 30.09 in 1.0 mi Calm Calm - N/A   Overcast
7:53 AM 36.0 °F - 34.0 °F 93% 30.11 in 1.2 mi Calm Calm - N/A   Overcast
8:45 AM 37.4 °F - 35.6 °F 93% 30.10 in 2.5 mi Calm Calm - N/A   Overcast
8:53 AM 37.9 °F - 36.0 °F 93% 30.12 in 3.0 mi Calm Calm - N/A   Overcast
9:53 AM 44.1 °F - 39.9 °F 85% 30.13 in 4.0 mi Calm Calm - N/A   Overcast
10:53 AM 46.9 °F - 43.0 °F 86% 30.12 in 5.0 mi Calm Calm - N/A   Overcast
11:53 AM 51.1 °F - 43.0 °F 74% 30.10 in 10.0 mi Calm Calm - N/A   Partly Cloudy
12:53 PM 52.0 °F - 41.0 °F 66% 30.09 in 10.0 mi Calm Calm - N/A   Overcast
1:53 PM 52.0 °F - 42.1 °F 69% 30.07 in 10.0 mi SSE 4.6 mph - N/A   Overcast
2:50 PM 51.8 °F - 42.8 °F 71% 30.06 in 10.0 mi South 4.6 mph - N/A   Overcast
2:53 PM 52.0 °F - 43.0 °F 71% 30.06 in 10.0 mi South 6.9 mph - N/A   Overcast
3:53 PM 48.9 °F - 41.0 °F 74% 30.08 in 7.0 mi SE 5.8 mph - N/A   Overcast
4:53 PM 46.0 °F 44.8 °F 39.9 °F 79% 30.08 in 5.0 mi Variable 3.5 mph - N/A   Haze
5:53 PM 45.0 °F 42.6 °F 39.9 °F 82% 30.09 in 6.0 mi Variable 4.6 mph - N/A   Haze
6:53 PM 43.0 °F 40.3 °F 39.9 °F 89% 30.11 in 5.0 mi ESE 4.6 mph - 0.00 in Rain Light Rain
7:48 PM 42.8 °F - 41.0 °F 93% 30.09 in 4.0 mi Calm Calm - 0.00 in   Overcast
7:53 PM 43.0 °F - 41.0 °F 93% 30.11 in 4.0 mi Calm Calm - 0.00 in   Overcast
8:53 PM 42.1 °F - 39.9 °F 92% 30.10 in 3.0 mi Calm Calm - N/A   Overcast
9:31 PM 42.8 °F - 41.0 °F 93% 30.08 in 3.0 mi Calm Calm - N/A   Overcast
9:53 PM 42.1 °F - 41.0 °F 96% 30.09 in 3.0 mi Calm Calm - N/A   Overcast
10:15 PM 42.8 °F - 41.0 °F 93% 30.07 in 3.0 mi Calm Calm - N/A   Overcast
10:53 PM 41.0 °F - 39.9 °F 96% 30.07 in 2.5 mi Calm Calm - N/A   Overcast
11:27 PM 41.0 °F - 39.2 °F 93% 30.06 in 3.0 mi Calm Calm - N/A   Overcast
11:35 PM 41.0 °F - 39.2 °F 93% 30.06 in 2.5 mi Calm Calm - N/A   Overcast
11:46 PM 41.0 °F - 39.2 °F 93% 30.06 in 2.0 mi Calm Calm - N/A   Overcast
11:53 PM 39.9 °F - 39.9 °F 100% 30.06 in 1.8 mi Calm Calm - N/A   Overcast